Weather History for Moorhead, MN

Change the Weather History Date:

Friday, May 3, 2013

  Actual Average (KFAR) Record (KFAR)
Temperature  
Mean Temperature 38 °F 53 °F  
Max Temperature 51 °F 65 °F 92 °F (1952)
Min Temperature 24 °F 40 °F 18 °F (1926)
Degree Days  
Heating Degree Days 28 13  
Month to date heating degree days 39  
Since 1 July heating degree days 8495  
Cooling Degree Days 0 0  
Month to date cooling degree days 0  
Year to date cooling degree days 3  
Moisture  
Dew Point 25 °F    
Average Humidity 64    
Maximum Humidity 100    
Minimum Humidity 28    
Precipitation  
Precipitation 0.00 in 0.07 in 1.24 in (1905)
Month to date precipitation 0.22  
Year to date precipitation 4.22  
Snow  
Snow 0.00 in 0.00 in T in (1991)
Month to date snowfall 0.0  
Since 1 July snowfall 50.4  
Snow Depth -    
Sea Level Pressure  
Sea Level Pressure 30.38 in    
Wind  
Wind Speed 8 mph (NNE)    
Max Wind Speed 17 mph    
Max Gust Speed 26 mph    
Visibility 10 miles    
Events      
T = Trace of Precipitation, MM = Missing Value Source: NWS Daily Summary

Daily Weather History Graph

Daily Weather History Graph

Search for Another Location

Airport:

Trip Planner

Search our weather history database for the weather conditions in past years. The results will help you decide how hot, cold, wet, or windy it might be!

Date:

Astronomy

May. 03, 2013 Rise Set
Actual Time 6:07 AM CDT 8:39 PM CDT
Civil Twilight 5:33 AM CDT 9:14 PM CDT
Nautical Twilight 4:51 AM CDT 9:57 PM CDT
Astronomical Twilight 4:01 AM CDT 10:46 PM CDT
Moon 2:57 AM CDT (5/3) 2:13 PM CDT (5/3)
Length of Visible Light 15h 40m
Length of Day
14h 31m
Last Quarter, 37% of the Moon is Illuminated
May 3
Last Quarter
May 9
New
May 17
First Quarter
May 24
Full
May 31
Last Quarter

Hourly Weather History & Observations

Time (CDT) Temp. Windchill Dew Point Humidity Pressure Visibility Wind Dir Wind Speed Gust Speed Precip Events Conditions
12:14 AM 32.0 °F 26.4 °F 28.4 °F 87% 30.54 in 10.0 mi NE 5.8 mph - N/A   Mostly Cloudy
12:35 AM 30.2 °F 25.4 °F 26.6 °F 86% 30.54 in 10.0 mi NNE 4.6 mph - N/A   Scattered Clouds
12:55 AM 30.2 °F 26.7 °F 26.6 °F 86% 30.53 in 10.0 mi North 3.5 mph - N/A   Scattered Clouds
1:14 AM 28.4 °F 23.3 °F 26.6 °F 93% 30.53 in 10.0 mi NNE 4.6 mph - N/A   Clear
1:35 AM 28.4 °F 24.6 °F 26.6 °F 93% 30.52 in 10.0 mi North 3.5 mph - N/A   Clear
1:54 AM 26.6 °F 22.6 °F 26.6 °F 100% 30.52 in 10.0 mi NNW 3.5 mph - N/A   Clear
2:15 AM 26.6 °F 22.6 °F 26.6 °F 100% 30.51 in 10.0 mi North 3.5 mph - N/A   Clear
2:35 AM 26.6 °F 22.6 °F 26.6 °F 100% 30.51 in 10.0 mi North 3.5 mph - N/A   Clear
2:54 AM 26.6 °F 21.2 °F 26.6 °F 100% 30.50 in 10.0 mi North 4.6 mph - N/A   Clear
3:15 AM 26.6 °F 21.2 °F 26.6 °F 100% 30.49 in 10.0 mi North 4.6 mph - N/A   Clear
3:35 AM 26.6 °F 21.2 °F 26.6 °F 100% 30.49 in 10.0 mi North 4.6 mph - N/A   Clear
3:54 AM 26.6 °F 20.0 °F 26.6 °F 100% 30.49 in 10.0 mi North 5.8 mph - N/A   Clear
4:15 AM 26.6 °F 20.0 °F 26.6 °F 100% 30.48 in 10.0 mi North 5.8 mph - N/A   Clear
4:34 AM 26.6 °F 20.0 °F 26.6 °F 100% 30.48 in 10.0 mi North 5.8 mph - N/A   Clear
4:55 AM 26.6 °F 20.0 °F 26.6 °F 100% 30.48 in 10.0 mi North 5.8 mph - N/A   Clear
5:15 AM 24.8 °F 19.1 °F 24.8 °F 100% 30.48 in 10.0 mi North 4.6 mph - N/A   Clear
5:34 AM 24.8 °F 20.5 °F 24.8 °F 100% 30.48 in 10.0 mi North 3.5 mph - N/A   Clear
5:55 AM 24.8 °F 19.1 °F 24.8 °F 100% 30.48 in 10.0 mi North 4.6 mph - N/A   Clear
6:15 AM 24.8 °F 19.1 °F 24.8 °F 100% 30.48 in 10.0 mi North 4.6 mph - N/A   Clear
6:34 AM 24.8 °F 19.1 °F 24.8 °F 100% 30.48 in 10.0 mi North 4.6 mph - N/A   Clear
6:55 AM 26.6 °F 21.2 °F 26.6 °F 100% 30.48 in 10.0 mi North 4.6 mph - N/A   Clear
7:14 AM 28.4 °F 22.2 °F 26.6 °F 93% 30.47 in 10.0 mi North 5.8 mph - N/A   Clear
7:35 AM 30.2 °F 23.4 °F 28.4 °F 93% 30.46 in 10.0 mi NNE 6.9 mph - N/A   Clear
7:55 AM 30.2 °F 21.9 °F 28.4 °F 93% 30.46 in 10.0 mi NE 9.2 mph - N/A   Clear
8:14 AM 32.0 °F 24.8 °F 28.4 °F 87% 30.46 in 10.0 mi NE 8.1 mph - N/A   Clear
8:35 AM 33.8 °F 27.0 °F 28.4 °F 81% 30.46 in 10.0 mi NE 8.1 mph - N/A   Clear
8:55 AM 33.8 °F 27.0 °F 28.4 °F 81% 30.45 in 10.0 mi NNE 8.1 mph - N/A   Clear
9:14 AM 33.8 °F 27.7 °F 28.4 °F 81% 30.45 in 10.0 mi NE 6.9 mph - N/A   Clear
9:35 AM 35.6 °F 29.2 °F 24.8 °F 65% 30.44 in 10.0 mi NE 8.1 mph - N/A   Clear
9:55 AM 37.4 °F 30.3 °F 26.6 °F 65% 30.43 in 10.0 mi NNE 10.4 mph - N/A   Clear
10:15 AM 37.4 °F 31.4 °F 24.8 °F 60% 30.42 in 10.0 mi NE 8.1 mph 16.1 mph N/A   Clear
10:35 AM 37.4 °F 30.3 °F 24.8 °F 60% 30.41 in 10.0 mi North 10.4 mph - N/A   Clear
10:54 AM 39.2 °F 32.5 °F 26.6 °F 61% 30.41 in 10.0 mi NNE 10.4 mph - N/A   Clear
11:15 AM 39.2 °F 31.6 °F 24.8 °F 56% 30.41 in 10.0 mi NNE 12.7 mph 18.4 mph N/A   Clear
11:35 AM 39.2 °F 32.5 °F 24.8 °F 56% 30.40 in 10.0 mi NE 10.4 mph 17.3 mph N/A   Clear
11:54 AM 41.0 °F 33.5 °F 24.8 °F 53% 30.39 in 10.0 mi NNE 13.8 mph 19.6 mph N/A   Clear
12:15 PM 42.8 °F 35.4 °F 24.8 °F 49% 30.38 in 10.0 mi NNE 15.0 mph 18.4 mph N/A   Clear
12:35 PM 42.8 °F 36.2 °F 26.6 °F 53% 30.37 in 10.0 mi NE 12.7 mph 19.6 mph N/A   Clear
12:54 PM 44.6 °F 38.4 °F 26.6 °F 49% 30.36 in 10.0 mi NNE 12.7 mph 20.7 mph N/A   Clear
1:15 PM 44.6 °F 38.1 °F 24.8 °F 46% 30.35 in 10.0 mi NNE 13.8 mph 24.2 mph N/A   Clear
1:35 PM 46.4 °F 40.1 °F 24.8 °F 43% 30.34 in 10.0 mi NNE 15.0 mph 20.7 mph N/A   Clear
1:54 PM 46.4 °F 39.5 °F 24.8 °F 43% 30.32 in 10.0 mi NE 17.3 mph 23.0 mph N/A   Clear
2:15 PM 46.4 °F 40.1 °F 24.8 °F 43% 30.32 in 10.0 mi NE 15.0 mph 23.0 mph N/A   Clear
2:35 PM 46.4 °F 40.1 °F 24.8 °F 43% 30.31 in 10.0 mi NNE 15.0 mph 23.0 mph N/A   Clear
2:54 PM 48.2 °F - 24.8 °F 40% 30.31 in 10.0 mi NNE 17.3 mph 20.7 mph N/A   Clear
3:15 PM 48.2 °F - 23.0 °F 37% 30.30 in 10.0 mi NE 13.8 mph 24.2 mph N/A   Clear
3:35 PM 50.0 °F - 21.2 °F 32% 30.29 in 10.0 mi NE 16.1 mph 24.2 mph N/A   Clear
3:55 PM 50.0 °F - 21.2 °F 32% 30.28 in 10.0 mi NE 12.7 mph 21.9 mph N/A   Clear
4:15 PM 51.8 °F - 21.2 °F 30% 30.28 in 10.0 mi NE 17.3 mph 25.3 mph N/A   Clear
4:34 PM 51.8 °F - 19.4 °F 28% 30.27 in 10.0 mi NNE 17.3 mph 25.3 mph N/A   Clear
4:55 PM 51.8 °F - 21.2 °F 30% 30.27 in 10.0 mi NE 16.1 mph 21.9 mph N/A   Clear
5:15 PM 50.0 °F - 21.2 °F 32% 30.26 in 10.0 mi NE 13.8 mph 21.9 mph N/A   Clear
5:34 PM 51.8 °F - 19.4 °F 28% 30.26 in 10.0 mi NNE 17.3 mph 20.7 mph N/A   Clear
5:55 PM 51.8 °F - 21.2 °F 30% 30.26 in 10.0 mi NNE 16.1 mph 26.5 mph N/A   Clear
6:15 PM 50.0 °F - 19.4 °F 30% 30.25 in 10.0 mi NE 12.7 mph - N/A   Clear
6:34 PM 50.0 °F - 19.4 °F 30% 30.25 in 10.0 mi NE 11.5 mph 18.4 mph N/A   Clear
6:55 PM 50.0 °F - 24.8 °F 37% 30.25 in 10.0 mi NE 10.4 mph 19.6 mph N/A   Clear
7:15 PM 50.0 °F - 21.2 °F 32% 30.25 in 10.0 mi NNE 17.3 mph - N/A   Clear
7:34 PM 48.2 °F - 21.2 °F 34% 30.25 in 10.0 mi NNE 15.0 mph - N/A   Clear
7:55 PM 48.2 °F - 23.0 °F 37% 30.26 in 10.0 mi NE 11.5 mph - N/A   Clear
8:15 PM 46.4 °F 41.9 °F 21.2 °F 37% 30.26 in 10.0 mi ENE 9.2 mph - N/A   Clear
8:35 PM 46.4 °F 41.1 °F 21.2 °F 37% 30.26 in 10.0 mi ENE 11.5 mph - N/A   Clear
8:55 PM 46.4 °F 41.9 °F 23.0 °F 40% 30.26 in 10.0 mi ENE 9.2 mph - N/A   Clear
9:14 PM 46.4 °F 42.9 °F 24.8 °F 43% 30.27 in 10.0 mi NE 6.9 mph - N/A   Clear
9:35 PM 46.4 °F 42.9 °F 26.6 °F 46% 30.27 in 10.0 mi NE 6.9 mph - N/A   Clear
9:55 PM 44.6 °F 40.2 °F 28.4 °F 53% 30.26 in 10.0 mi NE 8.1 mph - N/A   Clear
10:14 PM 44.6 °F 40.7 °F 28.4 °F 53% 30.27 in 10.0 mi NE 6.9 mph - N/A   Clear
10:35 PM 44.6 °F 40.2 °F 24.8 °F 46% 30.27 in 10.0 mi NE 8.1 mph - N/A   Clear
10:55 PM 44.6 °F 39.7 °F 28.4 °F 53% 30.26 in 10.0 mi NNE 9.2 mph - N/A   Clear
11:14 PM 44.6 °F 39.7 °F 28.4 °F 53% 30.26 in 10.0 mi NNE 9.2 mph - N/A   Clear
11:35 PM 42.8 °F 38.6 °F 26.6 °F 53% 30.25 in 10.0 mi NE 6.9 mph - N/A   Scattered Clouds
11:55 PM 42.8 °F 38.0 °F 26.6 °F 53% 30.25 in 10.0 mi NE 8.1 mph - N/A   Scattered Clouds